TimeCST,TemperatureF,Dew PointF,Humidity,Sea Level PressureIn,VisibilityMPH,Wind Direction,Wind SpeedMPH,Gust SpeedMPH,PrecipitationIn,Events,Conditions,WindDirDegrees,DateUTC
12:13 AM,10.4,6.8,85,30.46,10.0,Calm,Calm,-,N/A,,Clear,0,2013-11-29 06:13:00
12:33 AM,10.4,6.8,85,30.45,10.0,Calm,Calm,-,N/A,,Clear,0,2013-11-29 06:33:00
12:53 AM,10.4,6.8,85,30.45,10.0,Calm,Calm,-,N/A,,Clear,0,2013-11-29 06:53:00
1:14 AM,10.4,6.8,85,30.44,10.0,Calm,Calm,-,N/A,,Clear,0,2013-11-29 07:14:00
1:33 AM,10.4,6.8,85,30.44,10.0,Calm,Calm,-,N/A,,Clear,0,2013-11-29 07:33:00
1:53 AM,10.4,5.0,79,30.44,10.0,Calm,Calm,-,N/A,,Clear,0,2013-11-29 07:53:00
2:14 AM,10.4,5.0,79,30.45,10.0,Calm,Calm,-,N/A,,Clear,0,2013-11-29 08:14:00
2:33 AM,8.6,5.0,85,30.45,10.0,Calm,Calm,-,N/A,,Clear,0,2013-11-29 08:33:00
2:53 AM,8.6,5.0,85,30.45,10.0,Calm,Calm,-,N/A,,Clear,0,2013-11-29 08:53:00
3:14 AM,8.6,5.0,85,30.44,10.0,Calm,Calm,-,N/A,,Clear,0,2013-11-29 09:14:00
3:33 AM,10.4,5.0,79,30.43,10.0,Calm,Calm,-,N/A,,Clear,0,2013-11-29 09:33:00
3:53 AM,10.4,5.0,79,30.43,10.0,Calm,Calm,-,N/A,,Clear,0,2013-11-29 09:53:00
4:14 AM,10.4,5.0,79,30.42,10.0,Calm,Calm,-,N/A,,Clear,0,2013-11-29 10:14:00
4:33 AM,10.4,5.0,79,30.41,10.0,Calm,Calm,-,N/A,,Clear,0,2013-11-29 10:33:00
4:53 AM,10.4,6.8,85,30.40,10.0,Calm,Calm,-,N/A,,Clear,0,2013-11-29 10:53:00
5:13 AM,10.4,5.0,79,30.39,10.0,South,4.6,-,N/A,,Clear,180,2013-11-29 11:13:00
5:33 AM,10.4,5.0,79,30.39,10.0,South,5.8,-,N/A,,Clear,170,2013-11-29 11:33:00
5:54 AM,12.2,8.6,85,30.38,10.0,SSE,4.6,-,N/A,,Clear,160,2013-11-29 11:54:00
6:13 AM,14.0,8.6,79,30.38,10.0,SSE,4.6,-,N/A,,Clear,150,2013-11-29 12:13:00
6:33 AM,14.0,10.4,86,30.38,10.0,SSE,5.8,-,N/A,,Clear,150,2013-11-29 12:33:00
6:54 AM,14.0,10.4,86,30.37,10.0,SSE,6.9,-,N/A,,Clear,160,2013-11-29 12:54:00
7:14 AM,15.8,10.4,79,30.36,10.0,SSE,5.8,-,N/A,,Clear,160,2013-11-29 13:14:00
7:33 AM,15.8,10.4,79,30.36,10.0,South,6.9,-,N/A,,Clear,170,2013-11-29 13:33:00
7:54 AM,17.6,10.4,73,30.36,10.0,SSE,9.2,-,N/A,,Clear,160,2013-11-29 13:54:00
8:14 AM,17.6,12.2,79,30.36,10.0,SSE,10.4,-,N/A,,Clear,160,2013-11-29 14:14:00
8:33 AM,19.4,12.2,74,30.36,10.0,SSE,9.2,-,N/A,,Clear,160,2013-11-29 14:33:00
8:54 AM,19.4,14.0,80,30.35,10.0,South,9.2,-,N/A,,Clear,170,2013-11-29 14:54:00
9:13 AM,21.2,14.0,74,30.36,10.0,South,10.4,-,N/A,,Clear,170,2013-11-29 15:13:00
9:33 AM,23.0,15.8,74,30.35,10.0,SSE,8.1,-,N/A,,Clear,160,2013-11-29 15:33:00
9:53 AM,23.0,17.6,80,30.35,10.0,South,10.4,-,N/A,,Clear,170,2013-11-29 15:53:00
10:13 AM,26.6,17.6,69,30.34,10.0,South,13.8,17.3,N/A,,Clear,180,2013-11-29 16:13:00
10:34 AM,28.4,19.4,69,30.33,10.0,South,17.3,20.7,N/A,,Clear,180,2013-11-29 16:34:00
10:53 AM,30.2,19.4,64,30.32,10.0,South,20.7,-,N/A,,Clear,180,2013-11-29 16:53:00
11:14 AM,30.2,19.4,64,30.31,10.0,South,20.7,27.6,N/A,,Clear,180,2013-11-29 17:14:00
11:33 AM,32.0,19.4,60,30.29,10.0,South,21.9,25.3,N/A,,Clear,190,2013-11-29 17:33:00
11:54 AM,32.0,19.4,60,30.27,10.0,South,23.0,27.6,N/A,,Clear,180,2013-11-29 17:54:00
12:13 PM,32.0,19.4,60,30.26,10.0,South,21.9,28.8,N/A,,Clear,190,2013-11-29 18:13:00
12:34 PM,32.0,19.4,60,30.24,10.0,South,19.6,25.3,N/A,,Clear,170,2013-11-29 18:34:00
12:54 PM,33.8,19.4,56,30.22,10.0,South,19.6,26.5,N/A,,Clear,180,2013-11-29 18:54:00
1:13 PM,35.6,21.2,56,30.21,10.0,South,17.3,26.5,N/A,,Clear,180,2013-11-29 19:13:00
1:34 PM,35.6,21.2,56,30.19,10.0,South,15.0,23.0,N/A,,Clear,170,2013-11-29 19:34:00
1:54 PM,35.6,21.2,56,30.18,10.0,South,21.9,25.3,N/A,,Clear,170,2013-11-29 19:54:00
2:13 PM,35.6,21.2,56,30.16,10.0,South,19.6,26.5,N/A,,Clear,180,2013-11-29 20:13:00
2:33 PM,37.4,21.2,52,30.15,10.0,South,18.4,27.6,N/A,,Clear,170,2013-11-29 20:33:00
2:54 PM,35.6,21.2,56,30.14,10.0,South,15.0,24.2,N/A,,Clear,180,2013-11-29 20:54:00
3:13 PM,37.4,21.2,52,30.13,10.0,South,18.4,23.0,N/A,,Clear,180,2013-11-29 21:13:00
3:33 PM,37.4,21.2,52,30.13,10.0,South,19.6,26.5,N/A,,Clear,180,2013-11-29 21:33:00
3:54 PM,37.4,21.2,52,30.12,10.0,South,18.4,-,N/A,,Clear,180,2013-11-29 21:54:00
4:13 PM,37.4,21.2,52,30.12,10.0,South,15.0,-,N/A,,Clear,180,2013-11-29 22:13:00
4:33 PM,35.6,21.2,56,30.12,10.0,South,12.7,21.9,N/A,,Clear,180,2013-11-29 22:33:00
4:54 PM,33.8,21.2,60,30.11,10.0,South,12.7,-,N/A,,Clear,180,2013-11-29 22:54:00
5:13 PM,33.8,21.2,60,30.11,10.0,South,9.2,-,N/A,,Clear,170,2013-11-29 23:13:00
5:33 PM,32.0,21.2,64,30.12,10.0,South,6.9,-,N/A,,Clear,170,2013-11-29 23:33:00
5:54 PM,32.0,21.2,64,30.11,10.0,South,6.9,-,N/A,,Clear,170,2013-11-29 23:54:00
6:13 PM,30.2,21.2,69,30.11,10.0,South,5.8,-,N/A,,Clear,170,2013-11-30 00:13:00
6:33 PM,30.2,21.2,69,30.11,10.0,South,8.1,-,N/A,,Clear,170,2013-11-30 00:33:00
6:53 PM,28.4,21.2,74,30.12,10.0,South,5.8,-,N/A,,Clear,180,2013-11-30 00:53:00
7:13 PM,26.6,19.4,74,30.12,10.0,South,3.5,-,N/A,,Clear,180,2013-11-30 01:13:00
7:34 PM,26.6,19.4,74,30.13,10.0,Calm,Calm,-,N/A,,Clear,0,2013-11-30 01:34:00
7:53 PM,24.8,19.4,80,30.12,10.0,Calm,Calm,-,N/A,,Clear,0,2013-11-30 01:53:00
8:13 PM,23.0,19.4,86,30.11,10.0,SSE,3.5,-,N/A,,Clear,160,2013-11-30 02:13:00
8:33 PM,23.0,19.4,86,30.10,10.0,South,4.6,-,N/A,,Clear,180,2013-11-30 02:33:00
8:53 PM,26.6,19.4,74,30.09,10.0,South,3.5,-,N/A,,Clear,170,2013-11-30 02:53:00
9:13 PM,26.6,19.4,74,30.09,10.0,SSW,3.5,-,N/A,,Clear,210,2013-11-30 03:13:00
9:34 PM,24.8,19.4,80,30.09,10.0,South,5.8,-,N/A,,Clear,190,2013-11-30 03:34:00
9:53 PM,26.6,19.4,74,30.08,10.0,South,6.9,-,N/A,,Clear,180,2013-11-30 03:53:00
10:14 PM,26.6,21.2,80,30.07,10.0,South,5.8,-,N/A,,Clear,190,2013-11-30 04:14:00
10:33 PM,26.6,23.0,86,30.07,10.0,SSW,5.8,-,N/A,,Clear,200,2013-11-30 04:33:00
10:54 PM,26.6,21.2,80,30.08,10.0,SW,3.5,-,N/A,,Clear,230,2013-11-30 04:54:00
11:14 PM,26.6,21.2,80,30.07,10.0,South,4.6,-,N/A,,Clear,170,2013-11-30 05:14:00
11:33 PM,24.8,19.4,80,30.06,10.0,South,4.6,-,N/A,,Clear,190,2013-11-30 05:33:00
11:54 PM,24.8,21.2,86,30.06,10.0,Calm,Calm,-,N/A,,Clear,0,2013-11-30 05:54:00